Location: Adaghas
(31.2259°N, 9.0496°W)
Time: 03:30:29
(UTC+00:00)

BREEZE-M DEB (TANK) - Pass Details

Date: 18 September 2020
Orbit: 315 x 16294 km, 49.4° (Epoch: 23 October)

Event Time Altitude Azimuth Distance (km) Brightness Sun altitude
Rises 20:38:06 0° 322° (NW) 2,660 6.7 -26.1°
Reaches altitude 10° 20:39:34 10° 331° (NNW) 2,083 5.8 -26.4°
Maximum altitude 20:43:48 45° 46° (NE) 1,603 4.4 -27.3°
Enters shadow 20:44:47 43° 66° (ENE) 1,837 4.5 -27.5°
